Home > Weather > Iqaluit > Past weeks

Flag for Canada Past Weather in Iqaluit, Nunavut, Canada — Yesterday and Last 2 Weeks

Now
41 °F

Passing clouds.


Feels Like: 38 °F
Forecast: 43 / 63 °F
Wind: 5 mph from Northwest

Location: Iqaluit

Current Time: Jul 2, 2016 at 1:54:31 AM

Latest Report: Jul 2, 2016 at 1:00 AM


Visibility: 30 mi

Pressure: 29.95 "Hg

Humidity: 81%

Dew Point: 36 °F

Location of IqaluitLocation

Past Weather in Iqaluit — Graph

°F

Iqaluit Temperature Yesterday

Maximum temperature yesterday: 52 °F (at 3:00 PM)
Minimum temperature yesterday: 39 °F (at 4:00 AM)
Average temperature yesterday: 48 °F

High & Low Weather Summary for the Past Weeks

 TemperatureHumidityPressure
High59 °F (Jun 29, 4:00 PM)100% (Jun 18, 1:00 AM)30.07 "Hg (Jun 18, 1:00 AM)
Low32 °F (Jun 23, 3:00 AM)45% (Jun 29, 6:00 PM)29.08 "Hg (Jun 22, 1:00 PM)
Average43 °F77%29.69 "Hg
* Reported Jun 17 12:00 AM — Jul 2 12:00 AM, Iqaluit, Weather by CustomWeather, © 2016

Note: Actual official high and low records may vary slightly from our data, if they occured in-between our weather recording intervals... More about our weather records

Advertising

Iqaluit Weather History for the Previous 24 Hours

Scroll right to see more
 ConditionsComfort  
Time TempWeatherWind HumidityBarometerVisibility
12:00 AM
Sat, Jul 2
43 °FPassing clouds.3 mph81%29.95 "Hg30 mi
11:00 PM
Fri, Jul 1
43 °FScattered clouds.2 mph76%29.95 "Hg30 mi
10:00 PM46 °FScattered clouds.5 mph71%29.95 "Hg30 mi
9:00 PM48 °FPartly sunny.No wind62%29.95 "Hg30 mi
8:00 PM48 °FPartly sunny.3 mph66%29.94 "Hg30 mi
7:01 PM50 °FBroken clouds.5 mph67%29.94 "Hg30 mi
6:00 PM50 °FBroken clouds.5 mph67%29.94 "Hg30 mi
5:00 PM48 °FBroken clouds.7 mph66%29.95 "Hg30 mi
4:00 PM46 °FBroken clouds.8 mph71%29.95 "Hg30 mi
3:00 PM52 °FPartly sunny.7 mph58%29.96 "Hg30 mi
2:00 PM50 °FBroken clouds.6 mph67%29.96 "Hg30 mi
1:00 PM50 °FBroken clouds.6 mph67%29.97 "Hg30 mi
12:00 PM50 °FScattered clouds.7 mph67%29.98 "Hg30 mi
11:00 AM50 °FPassing clouds.6 mph62%29.99 "Hg30 mi
10:00 AM50 °FScattered clouds.6 mph62%30.00 "Hg30 mi
9:00 AM50 °FScattered clouds.5 mph62%30.00 "Hg30 mi
8:00 AM50 °FPassing clouds.3 mph58%30.01 "Hg30 mi
7:00 AM46 °FScattered clouds.3 mph66%30.01 "Hg30 mi
6:00 AM45 °FPassing clouds.5 mph71%30.02 "Hg30 mi
5:00 AM43 °FPartly sunny.No wind71%30.02 "Hg30 mi
4:00 AM39 °FPartly sunny.2 mph87%30.01 "Hg30 mi
3:00 AM50 °FPartly cloudy.3 mph71%30.00 "Hg30 mi
2:00 AM50 °FPartly cloudy.3 mph71%30.01 "Hg30 mi
1:00 AM50 °FPartly cloudy.7 mph71%30.01 "Hg30 mi
Weather by CustomWeather, © 2016

See weather overviewHow to use our weather pages